Location: Aldenham
(51.6667°N, 0.3500°W)
Time: 00:45:39
(UTC+00:00)

Altair - Pass Details

Date: 21 February 2026
Orbit: 1502 x 1682 km, 47.2° (Epoch: 10 March)

Event Time Altitude Azimuth Distance (km) Brightness Sun altitude
Rises 03:44:41 0° 221° (SW) 4,625 - -31.1°
Reaches altitude 10° 03:47:52 10° 215° (SW) 3,649 - -30.6°
Exits shadow 03:53:15 33° 187° (S) 2,315 8.1 -29.8°
Maximum altitude 03:56:15 42° 148° (SSE) 2,050 8.1 -29.4°
Drops below altitude 10° 04:04:50 10° 82° (E) 3,735 10.4 -28.2°
Sets 04:08:08 0° 76° (ENE) 4,745 11.3 -27.7°
